K4MRR Pensacola FL US current weather conditions

sailwx.info

Wind from 107

Air temperature 26.7° C
Dewpoint 21.4° C

Last reported at 2019-Jul-21 14:08 UTC.
Time now 2019-Jul-21 14:50 UTC

Location: N 30°20' W 087°23'.
View on Google Maps.

See reports from other nearby stations

  
Tides and Currents Weather Stations Pressure Air Temp Water Temp Dewpoint Dewpoint Depression Visibility Wind Speed Wind Dir Waves Ship Positions
date/time (UTC)wind fromknots sea level pressurealtimeterstation pressurevisibilityair tempwater tempwave heightnotes
2019-Jul-21 14:08 107 26.7
2019-Jul-21 13:53 017 26.1
2019-Jul-21 13:38 023 25.6
2019-Jul-21 13:23 036 25.0
2019-Jul-21 13:08 036 25.0
2019-Jul-21 12:53 311 24.4
2019-Jul-21 12:38 107 24.4
2019-Jul-21 12:23 107 23.9
2019-Jul-21 12:08 107 23.9
2019-Jul-21 11:53 107 23.9
2019-Jul-21 11:38 005 23.3
2019-Jul-21 11:23 279 23.3
2019-Jul-21 11:08 022 23.3
2019-Jul-21 10:53 280 23.3
2019-Jul-21 10:38 280 23.3
2019-Jul-21 10:23 280 23.3
2019-Jul-21 10:08 280 23.3
2019-Jul-21 09:53 280 23.3
2019-Jul-21 09:38 280 23.3
2019-Jul-21 09:23 280 23.3
2019-Jul-21 09:08 280 23.3
2019-Jul-21 08:53 280 22.8
2019-Jul-21 08:38 280 22.8
2019-Jul-21 08:23 280 23.3
2019-Jul-21 08:08 280 22.8
2019-Jul-21 07:53 280 22.8
2019-Jul-21 07:38 280 22.8
2019-Jul-21 07:23 280 22.8
2019-Jul-21 07:08 269 5 gusting 7 23.3
2019-Jul-21 06:53 286 1 gusting 6 23.9
2019-Jul-21 06:38 272 5 gusting 8 23.3
2019-Jul-21 06:23 227 4 gusting 12 25.0
2019-Jul-21 06:08 197 2 gusting 4 26.7
2019-Jul-21 05:53 172 26.1
2019-Jul-21 05:38 198 26.7
2019-Jul-21 05:23 142 25.6
2019-Jul-21 05:08 126 24.4
2019-Jul-21 04:53 209 23.9
2019-Jul-21 04:38 209 23.9
2019-Jul-21 04:23 209 23.9
2019-Jul-21 04:08 209 23.9
2019-Jul-21 03:53 209 24.4
2019-Jul-21 03:38 209 24.4
2019-Jul-21 03:23 209 25.0
2019-Jul-21 03:08 209 25.0
2019-Jul-21 02:53 209 25.6
2019-Jul-21 02:38 209 25.6
2019-Jul-21 02:23 209 26.1
2019-Jul-21 02:08 209 26.1
2019-Jul-21 01:53 209 26.7
2019-Jul-21 01:38 209 26.7
2019-Jul-21 01:23 209 27.2
2019-Jul-21 01:08 230 27.2
2019-Jul-21 00:53 196 1 gusting 4 27.8
2019-Jul-21 00:38 214 27.8
2019-Jul-21 00:23 202 2 gusting 5 28.3
2019-Jul-21 00:08 198 5 gusting 5 28.9
2019-Jul-20 23:53 199 2 gusting 6 29.4
2019-Jul-20 23:38 211 2 gusting 6 28.9
2019-Jul-20 23:23 191 2 gusting 6 29.4
2019-Jul-20 23:08 194 2 gusting 6 29.4
2019-Jul-20 22:53 153 1 gusting 6 30.0
2019-Jul-20 22:38 200 30.6
2019-Jul-20 22:23 220 5 gusting 5 29.4
2019-Jul-20 22:08 168 3 gusting 4 30.0
2019-Jul-20 21:53 138 2 gusting 6 30.0
2019-Jul-20 21:38 198 30.6
2019-Jul-20 21:23 158 30.6
2019-Jul-20 21:08 208 2 gusting 6 30.6
2019-Jul-20 20:53 160 2 gusting 4 30.6
2019-Jul-20 20:38 160 3 gusting 4 30.0
2019-Jul-20 20:23 098 0 gusting 4 28.9
2019-Jul-20 20:08 190 0 gusting 5 27.2
2019-Jul-20 19:53 138 3 gusting 5 26.7
2019-Jul-20 19:38 195 2 gusting 5 26.7
2019-Jul-20 19:23 111 3 gusting 6 26.1
2019-Jul-20 19:08 135 2 gusting 5 26.1
2019-Jul-20 18:53 080 1 gusting 5 26.7
2019-Jul-20 18:38 140 1 gusting 5 26.7
2019-Jul-20 18:23 132 3 gusting 4 26.1
2019-Jul-20 18:08 073 26.1
2019-Jul-20 17:53 123 25.6
2019-Jul-20 17:38 034 1 gusting 2 25.6
2019-Jul-20 17:23 065 1 gusting 3 25.0
2019-Jul-20 16:53 077 6 gusting 6 24.4
2019-Jul-20 16:38 067 6 gusting 6 24.4
2019-Jul-20 16:23 069 0 gusting 7 23.9
2019-Jul-20 16:08 086 2 gusting 5 23.9
2019-Jul-20 15:53 077 1 gusting 6 23.9
2019-Jul-20 15:38 094 2 gusting 6 23.9
2019-Jul-20 15:23 058 24.4
2019-Jul-20 15:08 031 0 gusting 1 25.6
2019-Jul-20 14:53 095 25.6
2019-Jul-20 14:38 255 25.6
2019-Jul-20 14:23 255 25.6
2019-Jul-20 14:08 281 25.6
2019-Jul-20 13:53 277 25.6
2019-Jul-20 13:38 255 2 gusting 6 25.6
2019-Jul-20 13:23 266 3 gusting 6 26.1
2019-Jul-20 13:08 263 26.1
2019-Jul-20 12:53 213 25.6
2019-Jul-20 12:38 244 1 gusting 3 25.6
2019-Jul-20 12:23 167 25.0
2019-Jul-20 12:08 252 25.0
2019-Jul-20 11:53 253 0 gusting 4 24.4
2019-Jul-20 11:38 171 23.9
2019-Jul-20 11:23 169 23.3
2019-Jul-20 11:08 061 23.3
2019-Jul-20 10:53 061 23.3
2019-Jul-20 10:38 061 23.3
2019-Jul-20 10:23 061 23.3
2019-Jul-20 10:08 061 23.3
2019-Jul-20 09:53 061 23.3
2019-Jul-20 09:38 061 23.3
2019-Jul-20 09:23 061 23.3
2019-Jul-20 09:08 061 23.3
2019-Jul-20 08:53 061 22.8
2019-Jul-20 08:38 061 22.8
2019-Jul-20 08:23 061 22.8
2019-Jul-20 08:08 061 22.2
2019-Jul-20 07:53 061 22.2
2019-Jul-20 07:38 061 22.2
2019-Jul-20 07:23 061 22.2
2019-Jul-20 07:08 061 22.2
2019-Jul-20 06:53 061 22.2
2019-Jul-20 06:38 061 22.2
2019-Jul-20 06:23 061 22.2
2019-Jul-20 06:08 061 22.2
2019-Jul-20 05:53 061 22.8
2019-Jul-20 05:38 061 22.8
2019-Jul-20 05:23 061 22.8
2019-Jul-20 05:08 061 23.3
2019-Jul-20 04:54 061 23.3
2019-Jul-20 04:38 061 23.9
2019-Jul-20 04:23 061 23.9
2019-Jul-20 04:08 061 24.4
2019-Jul-20 03:53 061 24.4
2019-Jul-20 03:38 061 24.4
2019-Jul-20 03:23 061 24.4
2019-Jul-20 02:53 047 24.4
2019-Jul-20 02:38 034 24.4
2019-Jul-20 02:23 034 24.4
2019-Jul-20 02:08 035 24.4
2019-Jul-20 01:53 032 24.4
2019-Jul-20 01:38 011 0 gusting 1 24.4
2019-Jul-20 01:23 005 24.4
2019-Jul-20 01:08 348 25.0
2019-Jul-20 00:53 013 0 gusting 1 25.0
2019-Jul-20 00:38 015 25.6
2019-Jul-20 00:23 303 1 gusting 5 26.7
2019-Jul-20 00:08 005 1 gusting 5 28.3
2019-Jul-19 23:53 284 29.4
2019-Jul-19 23:38 283 30.0
2019-Jul-19 23:23 258 30.6
2019-Jul-19 23:08 203 1 gusting 4 30.6
2019-Jul-19 22:53 268 30.6
2019-Jul-19 22:38 165 1 gusting 6 30.6
2019-Jul-19 22:23 132 1 gusting 5 30.6
2019-Jul-19 22:08 159 1 gusting 6 30.6
2019-Jul-19 21:53 215 3 gusting 8 30.6
2019-Jul-19 21:38 203 1 gusting 6 31.1
2019-Jul-19 21:23 212 2 gusting 6 31.7
2019-Jul-19 21:08 084 1 gusting 8 32.2
2019-Jul-19 20:53 165 2 gusting 7 32.8
2019-Jul-19 20:38 203 6 gusting 6 31.7
2019-Jul-19 20:23 179 4 gusting 5 31.1
2019-Jul-19 20:08 195 3 gusting 6 30.6
2019-Jul-19 19:53 215 31.1
2019-Jul-19 19:38 153 2 gusting 6 30.6
2019-Jul-19 19:33 203 3 gusting 7 31.1
2019-Jul-19 16:23 277 6 gusting 9 28.9
2019-Jul-19 16:08 228 1 gusting 6 32.8
2019-Jul-19 15:53 127 0 gusting 3 32.8
2019-Jul-19 15:38 147 32.8
2019-Jul-19 15:23 065 1 gusting 2 31.7
2019-Jul-19 15:08 077 1 gusting 3 30.6
2019-Jul-19 14:53 110 30.6
2019-Jul-19 14:38 327 30.0
2019-Jul-19 14:23 321 30.0
2019-Jul-19 14:08 292 30.6